Weather History for HEBA - May, 2014

Change the Weather History Date:

Sunday, May 25, 2014

  Actual Average (HEAX) Record (HEAX)
Temperature  
Mean Temperature 71 °F -  
Max Temperature 80 °F 80 °F 89 °F (2011)
Min Temperature 62 °F 64 °F 41 °F (1997)
Cooling Degree Days 6    
Growing Degree Days 21 (Base 50)    
Moisture  
Dew Point 60 °F    
Average Humidity 68    
Maximum Humidity 100    
Minimum Humidity 39    
Precipitation  
Precipitation 0.00 in - - ()
Sea Level Pressure  
Sea Level Pressure 30.01 in    
Wind  
Wind Speed 6 mph ()    
Max Wind Speed 16 mph    
Max Gust Speed -    
Averages and records for this station are not official NWS values.
T = Trace of Precipitation, MM = Missing Value Source: Averaged Metar Reports

Daily Weather History Graph

Daily Weather History Graph

Search for Another Location

Airport or City:

Trip Planner

Search our weather history database for the weather conditions in past years. The results will help you decide how hot, cold, wet, or windy it might be!

Date:

Astronomy

May. 25, 2014 Rise Set
Actual Time 6:00 AM EEST 7:55 PM EEST
Civil Twilight 5:33 AM EEST 8:22 PM EEST
Nautical Twilight 5:01 AM EEST 8:55 PM EEST
Astronomical Twilight 4:26 AM EEST 9:30 PM EEST
Moon 3:38 AM EEST (5/25) 4:47 PM EEST (5/25)
Length of Visible Light 14h 48m
Length of Day
13h 54m
Waning Crescent, 12% of the Moon is Illuminated
May 25
Waning Crescent
May 28
New
Jun 5
First Quarter
Jun 13
Full
Jun 19
Last Quarter

Hourly Weather History & Observations

Time (EEST) Temp. Heat Index Dew Point Humidity Pressure Visibility Wind Dir Wind Speed Gust Speed Precip Events Conditions
12:00 AM 68.0 °F - 62.6 °F 83% 30.01 in - NNW 6.9 mph - N/A   Clear
1:00 AM 66.2 °F - 62.6 °F 88% 30.01 in - NNW 6.9 mph - N/A   Clear
2:00 AM 66.2 °F - 60.8 °F 83% 30.01 in - NNW 5.8 mph - N/A   Clear
3:00 AM 66.2 °F - 60.8 °F 83% 30.01 in - NNW 5.8 mph - N/A   Clear
4:00 AM 64.4 °F - 60.8 °F 88% 30.01 in - NNW 5.8 mph - N/A   Clear
5:00 AM 64.4 °F - 60.8 °F 88% 30.01 in - Calm Calm - N/A   Clear
6:00 AM 62.6 °F - 59.0 °F 88% 29.98 in - Calm Calm - N/A   Clear
7:00 AM 62.6 °F - 62.6 °F 100% 30.01 in - Calm Calm - N/A   Clear
8:00 AM 68.0 °F - 62.6 °F 83% 30.01 in - Calm Calm - N/A   Clear
9:00 AM 73.4 °F - 60.8 °F 65% 30.01 in - Calm Calm - N/A   Clear
10:00 AM 75.2 °F - 60.8 °F 61% 30.04 in - North 6.9 mph - N/A   Clear
11:00 AM 77.0 °F - 59.0 °F 54% 30.04 in - NNW 6.9 mph - N/A   Clear
12:00 PM 78.8 °F - 59.0 °F 51% 30.04 in - North 11.5 mph - N/A   Clear
1:00 PM 78.8 °F - 57.2 °F 47% 30.01 in - North 11.5 mph - N/A   Clear
2:00 PM 80.6 °F 80.3 °F 53.6 °F 39% 30.01 in - North 11.5 mph - N/A   Clear
3:00 PM 80.6 °F 80.5 °F 55.4 °F 42% 30.01 in - NNW 13.8 mph - N/A   Clear
4:00 PM 78.8 °F - 55.4 °F 44% 29.98 in - North 16.1 mph - N/A   Clear
5:00 PM 77.0 °F - 55.4 °F 47% 29.98 in - NNW 13.8 mph - N/A   Clear
6:00 PM 77.0 °F - 57.2 °F 50% 29.98 in - NNW 16.1 mph - N/A   Clear
7:00 PM 75.2 °F - 59.0 °F 57% 29.98 in - NNW 13.8 mph - N/A   Clear
8:00 PM 73.4 °F - 60.8 °F 65% 30.01 in - North 13.8 mph - N/A   Clear
9:00 PM 71.6 °F - 62.6 °F 73% 30.01 in - North 5.8 mph - N/A   Clear
10:00 PM 71.6 °F - 62.6 °F 73% 30.01 in - Calm Calm - N/A   Clear
11:00 PM 69.8 °F - 60.8 °F 73% 30.01 in - Calm Calm - N/A   Clear